Weather History for HESH - May, 2013

Change the Weather History Date:

Tuesday, May 7, 2013

  Actual Average Record
Temperature  
Mean Temperature 88 °F -  
Max Temperature 98 °F - - ()
Min Temperature 77 °F - - ()
Cooling Degree Days 22    
Growing Degree Days 38 (Base 50)    
Moisture  
Dew Point 44 °F    
Average Humidity 24    
Maximum Humidity 37    
Minimum Humidity 13    
Precipitation  
Precipitation 0.00 in - - ()
Sea Level Pressure  
Sea Level Pressure 29.74 in    
Wind  
Wind Speed 10 mph ()    
Max Wind Speed 20 mph    
Max Gust Speed -    
T = Trace of Precipitation, MM = Missing Value Source: Averaged Metar Reports

Daily Weather History Graph

Daily Weather History Graph

Search for Another Location

Airport or City:

Trip Planner

Search our weather history database for the weather conditions in past years. The results will help you decide how hot, cold, wet, or windy it might be!

Date:

Astronomy

May. 07, 2013 Rise Set
Actual Time 4:57 AM EET 6:20 PM EET
Civil Twilight 4:32 AM EET 6:45 PM EET
Nautical Twilight 4:03 AM EET 7:15 PM EET
Astronomical Twilight 3:32 AM EET 7:46 PM EET
Moon 3:08 AM EET (5/7) 4:09 PM EET (5/7)
Length of Visible Light 14h 12m
Length of Day
13h 22m
Waning Crescent, 7% of the Moon is Illuminated
May 7
Waning Crescent
May 10
New
May 18
First Quarter
May 25
Full
May 31
Last Quarter

Hourly Weather History & Observations

Time (EET) Temp. Heat Index Dew Point Humidity Pressure Visibility Wind Dir Wind Speed Gust Speed Precip Events Conditions
12:00 AM 80.6 °F - 46.4 °F 30% 29.74 in - North 19.6 mph - N/A   Clear
1:00 AM 80.6 °F - 44.6 °F 28% 29.74 in - North 13.8 mph - N/A   Clear
2:00 AM 80.6 °F - 42.8 °F 26% 29.74 in - North 15.0 mph - N/A   Clear
3:00 AM 80.6 °F - 41.0 °F 24% 29.71 in - North 12.7 mph - N/A   Clear
4:00 AM 78.8 °F - 41.0 °F 26% 29.71 in - North 13.8 mph - N/A   Clear
5:00 AM 77.0 °F - 42.8 °F 29% 29.74 in - North 11.5 mph - N/A   Clear
6:00 AM 80.6 °F - 39.2 °F 23% 29.74 in - North 9.2 mph - N/A   Clear
7:00 AM 82.4 °F - 50.0 °F 32% 29.77 in - North 13.8 mph - N/A   Clear
8:00 AM 86.0 °F - 50.0 °F 29% 29.80 in - NNE 13.8 mph - N/A   Clear
10:00 AM 89.6 °F - 48.2 °F 24% 29.80 in - NNE 12.7 mph - N/A   Clear
11:00 AM 91.4 °F - 48.2 °F 23% 29.80 in - NNE 12.7 mph - N/A   Clear
12:00 PM 91.4 °F - 44.6 °F 20% 29.77 in - NNE 15.0 mph - N/A   Clear
2:00 PM 98.6 °F - 48.2 °F 18% 29.74 in - SSE 9.2 mph - N/A   Clear
3:00 PM 96.8 °F - 42.8 °F 16% 29.74 in - South 8.1 mph - N/A   Clear
4:00 PM 96.8 °F - 37.4 °F 13% 29.71 in - South 6.9 mph - N/A   Clear
5:00 PM 93.2 °F - 41.0 °F 16% 29.71 in - South 4.6 mph - N/A   Clear
6:00 PM 91.4 °F - 42.8 °F 18% 29.68 in - Calm Calm - N/A   Clear
7:00 PM 87.8 °F - 46.4 °F 24% 29.71 in - Calm Calm - N/A   Clear
8:00 PM 86.0 °F - 41.0 °F 20% 29.71 in - Variable 2.3 mph - N/A   Clear
9:00 PM 86.0 °F - 41.0 °F 20% 29.71 in - Variable 2.3 mph - N/A   Clear
10:00 PM 82.4 °F - 44.6 °F 26% 29.74 in - North 4.6 mph - N/A   Clear
11:00 PM 82.4 °F 81.4 °F 53.6 °F 37% 29.74 in - North 10.4 mph - N/A   Clear